STARLINK-36514, 67641

Orbit data source: Space-Track

STARLINK-36514, 67641 is a payload satellite owned by SpaceX/Seattle (US) in LEO that was launched on Fri, 30 Jan 2026 UTC via an FALCON 9 launch vehicle from the Air Force Eastern Test Range (AFETR). Payload-class satellites include a variety of spacecraft equipped with specific instruments for various scientific and technological missions. These include communications satellites like Starlink; space stations such as the ISS; scientific satellites like the Hubble; Earth observation satellites from companies like Planet Labs, Umbra, and HawkEye 360; GPS; miniature CubeSats for education and research; and military/defense satellites.

Loading next visibility...
Identifier
67641, 2026-020AA
Orbit
LEO
Country
Flag of USUS
Related business
Manufacturer
SpaceX/Seattle
Mission
Operational spacecraft
Bus & Motor
STARLINK V2MO, Unknown motor
Mass
575 kg wet, ~530 kg dry
Launch date (UTC)
2026-01-30 (1 week ago)
Launch vehicle
FALCON 9
Launch site
Air Force Eastern Test Range (AFETR)
Object type
Payload
Rocket body
Debris
Shape & HBR
Unknown
Radar Cross Section
RCS unknown

Expand to show TLE details & history
Last TLE update: 5 hours ago

TLE from 5 hours ago
0 STARLINK-36514
1 67641U 26020AA  26037.83335647 -.01896853  99005-3 -52214-2 0  9995
2 67641  42.9998 329.8718 0001783 262.5001 119.3935 15.93159661  2436
Epoch: 2026-02-06T20:00Z
TLE epoch observation values (Epoch: 2026-02-06T20:00:01.999Z)
Latitude
14.77685°
Longitude
-90.76615°
Altitude
293.073 km
Speed
7.735 km/s
True Right ascension
23h 04m 49s
True Declination
14° 41' 11"
Sunlit
Object was in daylight at epoch
Visualization orbit readout
Latitude
Unknown
Longitude
Unknown
Altitude
Unknown
Speed
Unknown
Apparent Right ascension
Unknown
Apparent Declination
Unknown
Sunlit
N/A
Visualization observer readout
Local Sidereal Time
02:45:14
Azimuth
Unknown
Elevation
Unknown
Doppler factor
Unknown
Orbital elements
Apogee altitude
296.637 km
Perigee altitude
294.258 km
Semi-major axis
6,673.585 km
Eccentricity
0.00018
Inclination
42.9998°
RAAN
329.8718°
Arg. of periapsis
262.5001°
True anomaly
119.4113°
Mean anomaly
119.3935°
Eccentric anomaly
119.4024°
Mean motion
3.98111 °/min
Orbital period
90.43 mins
BSTAR
-0.0052214
Loading maneuver chart data...
Computing Atmospheric mass density...
Loading historical data...
Loading historical data...
Loading historical data...
Loading historical data...
Loading historical data...
Loading historical data...
Loading historical data...

Documentation

Showing up to 5 results
|